This is the latest recevied weather packets stored in our database for station/object SR9WXJ. If no packets are shown the sender has not sent any weather packets the latest 1 day(s).
| Time | Temp. | Humidity | Pressure | Rain* | Wind** | Luminosity | Snow |
|---|---|---|---|---|---|---|---|
| 1777983181 | 23.89° C | 100% | 789.9 hPa | - | 1.79 m/s, 148° | - | - |
| 1777982870 | 23.89° C | 100% | 789.9 hPa | - | 0.89 m/s, 158° | - | - |
| 1777982248 | 23.33° C | 100% | 789.9 hPa | - | 1.34 m/s, 153° | - | - |
| 1777981638 | 23.33° C | 100% | 789.9 hPa | - | 2.24 m/s, 168° | - | - |
| 1777981328 | 23.33° C | 100% | 789.9 hPa | - | 1.79 m/s, 163° | - | - |
| 1777981017 | 23.89° C | 100% | 789.9 hPa | - | 1.34 m/s, 164° | - | - |
| 1777980706 | 23.33° C | 100% | 789.9 hPa | - | 1.34 m/s, 153° | - | - |
| 1777980396 | 23.89° C | 100% | 789.9 hPa | - | 1.79 m/s, 182° | - | - |
| 1777980096 | 23.33° C | 100% | 789.9 hPa | - | 1.79 m/s, 150° | - | - |
| 1777979785 | 23.89° C | 100% | 789.9 hPa | - | 1.79 m/s, 151° | - | - |
| 1777979475 | 23.89° C | 100% | 789.9 hPa | - | 1.79 m/s, 176° | - | - |
| 1777979164 | 24.44° C | 100% | 789.9 hPa | - | 1.34 m/s, 180° | - | - |
| 1777978853 | 23.33° C | 100% | 789.9 hPa | - | 1.79 m/s, 143° | - | - |
| 1777978543 | 23.33° C | 100% | 789.9 hPa | - | 1.79 m/s, 173° | - | - |
| 1777978243 | 23.33° C | 100% | 789.9 hPa | - | 1.79 m/s, 157° | - | - |
| 1777977929 | 23.33° C | 100% | 789.9 hPa | - | 1.34 m/s, 148° | - | - |
| 1777977619 | 23.33° C | 100% | 789.9 hPa | - | 2.68 m/s, 178° | - | - |
| 1777977308 | 23.33° C | 100% | 789.9 hPa | - | 1.79 m/s, 175° | - | - |
| 1777977008 | 23.89° C | 100% | 789.9 hPa | - | 1.34 m/s, 173° | - | - |
| 1777976697 | 23.89° C | 100% | 789.9 hPa | - | 1.79 m/s, 170° | - | - |
| 1777976386 | 23.89° C | 100% | 789.9 hPa | - | 2.68 m/s, 168° | - | - |
| 1777976076 | 23.89° C | 100% | 789.9 hPa | - | 1.79 m/s, 180° | - | - |
| 1777975765 | 23.89° C | 100% | 789.9 hPa | - | 1.34 m/s, 197° | - | - |
| 1777975465 | 23.89° C | 100% | 789.9 hPa | - | 1.79 m/s, 161° | - | - |
| 1777974844 | 23.33° C | 100% | 789.9 hPa | - | 1.79 m/s, 186° | - | - |
* Rain since midnight (hover to see other rain measurements)
** Current wind speed in m/s (hover to see current wind gust speed)